Location: Unspecified
(0.0000°N, 0.0000°E)
Time: 06:01:17
(UTC+00:00)

A-11 Canister half - Pass Details

Date: 19 April 2026
Orbit: 1523 x 1685 km, 47.3° (Epoch: 13 May)

Event Time Altitude Azimuth Distance (km) Brightness Sun altitude
Rises 09:55:50 0° 304° (NW) 4,837 11.4 57.4°
Reaches altitude 10° 09:59:14 10° 297° (WNW) 3,830 11.0 58.2°
Maximum altitude 10:08:09 41° 230° (SW) 2,143 10.0 60.2°
Drops below altitude 10° 10:16:51 10° 163° (SSE) 3,724 11.1 62.2°
Sets 10:20:09 0° 155° (SSE) 4,693 11.6 63.0°
